When you browse on this site, cookies collect data to enhance your experience and personalize the content and advertising you see.
Visit our Privacy Policy to learn more. By continuing to use the site, you agree to this use of cookies and data.
  • In Latvia
  • List of Countries
  • For 7 days
  • Water Temperature
  • Satellite Maps
  • Weather Map
  • Weather Widgets
  • user-avatar
    Login

    Hourly Weather Podvale

    Today, 26 June, Wednesday

    Time Temperature Precipitation Wind Pressure Humidity
    00:00 +15°C° 0 mm 2 mps 759 mmHg 82%
    01:00 +15°C° 0 mm 2 mps 759 mmHg 82%
    02:00 +14°C° 0 mm 2 mps 759 mmHg 83%
    03:00 +14°C° 0 mm 2 mps 759 mmHg 83%
    04:00 +15°C° 0 mm 2 mps 759 mmHg 82%
    05:00 +14°C° 0 mm 3 mps 759 mmHg 80%
    06:00 +15°C° 0 mm 4 mps 759 mmHg 79%
    07:00 +17°C° 0.1 mm 4 mps 759 mmHg 75%
    08:00 +18°C° 0.1 mm 4 mps 759 mmHg 71%
    09:00 +19°C° 0.1 mm 4 mps 759 mmHg 67%
    10:00 +19°C° 0.2 mm 4 mps 759 mmHg 65%
    11:00 +20°C° 0.2 mm 4 mps 759 mmHg 63%
    12:00 +20°C° 0.2 mm 5 mps 759 mmHg 61%
    13:00 +20°C° 0 mm 5 mps 758 mmHg 59%
    14:00 +20°C° 0 mm 4 mps 758 mmHg 57%
    15:00 +21°C° 0 mm 4 mps 758 mmHg 54%
    16:00 +20°C° 0 mm 4 mps 758 mmHg 58%
    17:00 +19°C° 0 mm 4 mps 758 mmHg 61%
    18:00 +19°C° 0 mm 3 mps 757 mmHg 64%
    19:00 +17°C° 0 mm 3 mps 757 mmHg 69%
    20:00 +16°C° 0 mm 2 mps 757 mmHg 74%
    21:00 +14°C° 0 mm 1 mps 757 mmHg 79%
    22:00 +13°C° 0 mm 1 mps 757 mmHg 80%
    23:00 +13°C° 0 mm 1 mps 756 mmHg 81%

    Tomorrow, 27 June, Thursday

    Time Temperature Precipitation Wind Pressure Humidity
    00:00 +12°C° 0 mm 0 mps 756 mmHg 82%
    01:00 +13°C° 0 mm 1 mps 756 mmHg 81%
    02:00 +13°C° 0 mm 1 mps 755 mmHg 79%
    03:00 +13°C° 0 mm 1 mps 755 mmHg 77%
    04:00 +13°C° 0.1 mm 2 mps 754 mmHg 79%
    05:00 +14°C° 0.1 mm 2 mps 753 mmHg 80%
    06:00 +14°C° 0.1 mm 2 mps 753 mmHg 82%
    07:00 +13°C° 0.8 mm 3 mps 752 mmHg 86%
    08:00 +12°C° 0.8 mm 4 mps 752 mmHg 90%
    09:00 +12°C° 0.8 mm 5 mps 751 mmHg 94%
    10:00 +13°C° 0.3 mm 5 mps 751 mmHg 92%
    11:00 +14°C° 0.3 mm 5 mps 750 mmHg 90%
    12:00 +16°C° 0.3 mm 5 mps 750 mmHg 87%
    13:00 +16°C° 0.2 mm 6 mps 750 mmHg 84%
    14:00 +16°C° 0.2 mm 6 mps 750 mmHg 80%
    15:00 +16°C° 0.2 mm 7 mps 749 mmHg 76%
    16:00 +15°C° 0 mm 6 mps 749 mmHg 77%
    17:00 +14°C° 0 mm 6 mps 749 mmHg 77%
    18:00 +13°C° 0 mm 5 mps 749 mmHg 78%
    19:00 +12°C° 0 mm 4 mps 749 mmHg 82%
    20:00 +11°C° 0 mm 3 mps 749 mmHg 86%
    21:00 +10°C° 0 mm 3 mps 749 mmHg 90%
    22:00 +10°C° 0 mm 2 mps 749 mmHg 92%
    23:00 +9°C° 0 mm 2 mps 749 mmHg 93%

    Day after tomorrow, 28 June, Friday

    Time Temperature Precipitation Wind Pressure Humidity
    00:00 +9°C° 0 mm 2 mps 748 mmHg 94%
    01:00 +9°C° 0 mm 2 mps 748 mmHg 94%
    02:00 +10°C° 0 mm 1 mps 748 mmHg 94%
    03:00 +9°C° 0 mm 1 mps 747 mmHg 94%
    04:00 +10°C° 0 mm 1 mps 747 mmHg 92%
    05:00 +10°C° 0 mm 2 mps 747 mmHg 90%
    06:00 +12°C° 0 mm 2 mps 746 mmHg 87%
    07:00 +11°C° 0.5 mm 3 mps 746 mmHg 90%
    08:00 +11°C° 0.5 mm 3 mps 745 mmHg 92%
    09:00 +11°C° 0.5 mm 4 mps 745 mmHg 94%
    10:00 +12°C° 0.5 mm 4 mps 745 mmHg 91%
    11:00 +13°C° 0.5 mm 5 mps 744 mmHg 89%
    12:00 +14°C° 0.5 mm 6 mps 744 mmHg 86%
    13:00 +15°C° 0 mm 6 mps 743 mmHg 85%
    14:00 +17°C° 0 mm 6 mps 743 mmHg 84%
    15:00 +20°C° 0 mm 5 mps 743 mmHg 82%
    16:00 +20°C° 0.8 mm 5 mps 742 mmHg 82%
    17:00 +20°C° 0.8 mm 4 mps 742 mmHg 83%
    18:00 +21°C° 0.8 mm 4 mps 742 mmHg 83%
    19:00 +20°C° 0.2 mm 4 mps 742 mmHg 85%
    20:00 +19°C° 0.2 mm 4 mps 742 mmHg 87%
    21:00 +18°C° 0.2 mm 3 mps 742 mmHg 89%
    22:00 +18°C° 0.1 mm 3 mps 742 mmHg 90%
    23:00 +17°C° 0.1 mm 3 mps 741 mmHg 91%

    29 June, Saturday

    Time Temperature Precipitation Wind Pressure Humidity
    00:00 +17°C° 0.1 mm 2 mps 741 mmHg 92%
    01:00 +17°C° 0.1 mm 3 mps 741 mmHg 93%
    02:00 +16°C° 0.1 mm 3 mps 741 mmHg 94%
    03:00 +16°C° 0.1 mm 3 mps 741 mmHg 95%
    04:00 +17°C° 0 mm 3 mps 741 mmHg 95%
    05:00 +18°C° 0 mm 3 mps 742 mmHg 94%
    06:00 +18°C° 0 mm 4 mps 742 mmHg 94%
    07:00 +19°C° 0 mm 4 mps 742 mmHg 88%
    08:00 +20°C° 0 mm 4 mps 742 mmHg 82%
    09:00 +21°C° 0 mm 5 mps 743 mmHg 76%
    10:00 +22°C° 0 mm 5 mps 743 mmHg 70%
    11:00 +23°C° 0 mm 6 mps 743 mmHg 64%
    12:00 +23°C° 0 mm 6 mps 744 mmHg 58%
    13:00 +23°C° 0 mm 6 mps 744 mmHg 58%
    14:00 +23°C° 0 mm 7 mps 744 mmHg 58%
    15:00 +23°C° 0 mm 7 mps 745 mmHg 58%
    16:00 +23°C° 0 mm 6 mps 745 mmHg 63%
    17:00 +22°C° 0 mm 5 mps 745 mmHg 67%
    18:00 +21°C° 0 mm 4 mps 746 mmHg 71%
    19:00 +20°C° 0 mm 3 mps 746 mmHg 74%
    20:00 +18°C° 0 mm 3 mps 746 mmHg 76%
    21:00 +16°C° 0 mm 3 mps 747 mmHg 79%
    22:00 +16°C° 0 mm 2 mps 747 mmHg 80%
    23:00 +15°C° 0 mm 2 mps 747 mmHg 80%

    30 June, Sunday

    Time Temperature Precipitation Wind Pressure Humidity
    00:00 +15°C° 0 mm 2 mps 747 mmHg 81%
    01:00 +15°C° 0 mm 2 mps 747 mmHg 82%
    02:00 +14°C° 0 mm 2 mps 748 mmHg 83%
    03:00 +14°C° 0 mm 1 mps 748 mmHg 84%
    04:00 +15°C° 0 mm 1 mps 748 mmHg 82%
    05:00 +15°C° 0 mm 1 mps 748 mmHg 79%
    06:00 +16°C° 0 mm 1 mps 748 mmHg 77%
    07:00 +18°C° 0 mm 1 mps 748 mmHg 72%
    08:00 +19°C° 0 mm 1 mps 748 mmHg 68%
    09:00 +20°C° 0 mm 1 mps 748 mmHg 64%
    10:00 +21°C° 0 mm 1 mps 749 mmHg 62%
    11:00 +22°C° 0 mm 1 mps 749 mmHg 60%
    12:00 +22°C° 0 mm 1 mps 749 mmHg 58%
    13:00 +23°C° 0 mm 1 mps 749 mmHg 55%
    14:00 +23°C° 0 mm 1 mps 749 mmHg 53%
    15:00 +24°C° 0 mm 1 mps 749 mmHg 50%
    16:00 +23°C° 0.1 mm 1 mps 749 mmHg 57%
    17:00 +21°C° 0.1 mm 2 mps 750 mmHg 64%
    18:00 +21°C° 0.1 mm 3 mps 750 mmHg 71%
    19:00 +19°C° 0.1 mm 2 mps 750 mmHg 77%
    20:00 +18°C° 0.1 mm 2 mps 750 mmHg 84%
    21:00 +16°C° 0.1 mm 2 mps 751 mmHg 90%
    22:00 +16°C° 0 mm 2 mps 751 mmHg 91%
    23:00 +15°C° 0 mm 1 mps 751 mmHg 91%

    1 July, Monday

    Time Temperature Precipitation Wind Pressure Humidity
    00:00 +15°C° 0 mm 1 mps 751 mmHg 91%
    01:00 +15°C° 0 mm 1 mps 751 mmHg 92%
    02:00 +15°C° 0 mm 1 mps 751 mmHg 93%
    03:00 +14°C° 0 mm 2 mps 752 mmHg 93%
    04:00 +15°C° 0 mm 2 mps 752 mmHg 92%
    05:00 +16°C° 0 mm 3 mps 752 mmHg 91%
    06:00 +17°C° 0 mm 4 mps 752 mmHg 90%
    07:00 +18°C° 0 mm 4 mps 752 mmHg 83%
    08:00 +19°C° 0 mm 5 mps 751 mmHg 77%
    09:00 +20°C° 0 mm 6 mps 751 mmHg 70%
    10:00 +21°C° 0 mm 6 mps 751 mmHg 70%
    11:00 +21°C° 0 mm 7 mps 751 mmHg 69%
    12:00 +21°C° 0 mm 7 mps 750 mmHg 68%
    13:00 +21°C° 0.6 mm 6 mps 750 mmHg 76%
    14:00 +20°C° 0.6 mm 6 mps 749 mmHg 83%
    15:00 +19°C° 0.6 mm 6 mps 749 mmHg 90%
    16:00 +17°C° 3.9 mm 5 mps 749 mmHg 93%
    17:00 +17°C° 3.9 mm 5 mps 749 mmHg 95%
    18:00 +17°C° 3.9 mm 5 mps 748 mmHg 97%
    19:00 +17°C° 1.3 mm 5 mps 748 mmHg 97%
    20:00 +17°C° 1.3 mm 5 mps 748 mmHg 97%
    21:00 +17°C° 1.3 mm 5 mps 748 mmHg 97%
    22:00 +17°C° 0.1 mm 4 mps 748 mmHg 97%
    23:00 +17°C° 0.1 mm 4 mps 748 mmHg 97%
    Show more